User: anonymous   Login
Location: Unspecified
(0.0000°N, 0.0000°E)
Time: 08:34:15
(UTC+02:00)
Language:

Ariane 42L R/B - Orbit

View from above orbital plane
View from above orbital plane
View from above satellite
View from above satellite

Ground track
Ground track

The orbit data is extracted from the following two-line orbital elements,

1 26299U 00020B   16208.53575583  .00002937  00000-0  57753-3 0  9999
2 26299   7.4358 224.5084 5959811  38.9969 351.6350  4.10277779205693
Epoch (UTC): 26 July 2016 12:51:29
Eccentricity: 0.5959811
inclination: 7.4358°
perigee height: 281 km
apogee height: 19927 km
right ascension of ascending node: 224.5084°
argument of perigee: 38.9969°
revolutions per day: 4.10277779
mean anomaly at epoch: 351.6350°
orbit number at epoch: 20569

The dashed part of the orbit path shows where the satellite is in the earth's shadow,  

DLR